Date,TemperatureHighF,TemperatureAvgF,TemperatureLowF,DewpointHighF,DewpointAvgF,DewpointLowF,HumidityHigh,HumidityAvg,HumidityLow,PressureMaxIn,PressureMinIn,WindSpeedMaxMPH,WindSpeedAvgMPH,GustSpeedMaxMPH,PrecipitationSumIn
2013-1-1,46.6,43.1,38.4,45.0,40.0,27.8,95,89,65,30.19,29.99,4,0,4,0.97
2013-1-2,46.0,38.8,36.0,44.6,36.8,34.1,95,93,89,30.17,29.96,13,1,13,0.05
2013-1-3,37.7,34.1,30.2,34.3,30.7,23.3,94,87,74,30.38,30.14,10,1,10,0.00
2013-1-4,42.2,31.1,23.9,28.6,22.1,18.1,91,71,43,30.45,30.35,14,1,14,0.00
2013-1-5,48.7,35.5,23.6,33.9,24.5,18.9,87,66,35,30.44,30.31,6,0,6,0.03
2013-1-6,42.3,36.9,34.8,36.1,32.9,29.5,94,85,74,30.31,30.15,15,1,15,0.02
2013-1-7,52.2,37.4,26.5,33.1,26.6,23.8,92,68,36,30.44,30.27,12,1,12,0.01
2013-1-8,57.2,45.0,35.1,47.5,37.2,26.6,88,74,60,30.44,30.33,15,2,15,0.00
2013-1-9,59.0,53.6,49.9,53.5,50.1,47.1,92,88,81,30.45,30.37,13,1,13,0.00
2013-1-10,62.9,56.6,49.2,51.8,50.1,46.8,94,80,64,30.44,30.24,18,2,18,0.04
2013-1-11,60.9,57.8,53.9,59.2,56.1,51.6,95,94,92,30.24,30.09,16,1,16,0.46
2013-1-12,68.6,61.0,57.6,62.0,57.7,54.8,98,89,67,30.16,30.04,8,0,8,0.03
2013-1-13,65.5,62.8,59.5,58.2,55.9,53.3,93,78,71,30.08,29.99,19,1,19,0.60
2013-1-14,59.6,54.0,45.1,57.9,52.5,43.6,96,95,93,30.15,29.98,14,0,14,1.78
2013-1-15,59.2,54.4,46.0,58.1,53.2,44.6,96,96,95,30.11,29.94,9,0,9,2.29
2013-1-16,59.2,55.0,51.5,58.1,53.6,50.1,96,95,93,30.00,29.88,15,1,15,0.71
2013-1-17,53.5,45.3,31.8,51.3,43.5,28.8,96,93,81,30.25,29.63,25,1,25,1.31
2013-1-18,48.9,35.3,28.9,31.2,26.5,21.5,89,71,48,30.53,30.25,10,1,10,0.00
2013-1-19,51.9,36.4,28.4,30.8,26.1,20.9,90,69,35,30.50,30.27,7,0,7,0.00
2013-1-20,54.7,40.4,29.5,35.9,30.4,25.8,92,69,43,30.28,30.13,13,1,13,0.00
2013-1-21,46.1,35.1,27.4,33.3,24.1,13.4,94,67,40,30.20,30.10,22,2,22,0.01
2013-1-22,34.5,26.7,20.7,14.3,8.2,4.6,59,46,32,30.36,30.17,21,3,21,0.00
2013-1-23,45.0,32.5,25.3,27.1,17.7,5.8,74,55,42,30.43,30.22,13,1,13,0.00
2013-1-24,41.4,36.2,27.5,35.4,20.0,7.7,80,54,32,30.40,30.17,24,3,24,0.00
2013-1-25,37.4,29.1,22.8,35.8,20.8,6.9,94,73,41,30.41,30.19,25,3,25,0.34
2013-1-26,49.2,36.9,30.7,35.8,30.9,25.3,100,80,53,30.37,30.22,11,1,11,0.00
2013-1-27,50.1,38.7,27.5,34.7,29.9,24.7,92,72,53,30.51,30.35,24,5,24,0.00
2013-1-28,58.6,47.1,38.6,51.1,40.1,29.3,93,77,67,30.46,30.28,17,1,17,0.00
2013-1-29,62.2,52.3,41.4,57.8,48.8,39.8,95,88,76,30.30,29.98,13,1,13,0.11
2013-1-30,64.8,55.7,36.8,60.1,52.6,34.1,94,89,81,29.98,29.50,36,3,36,3.07
2013-1-31,39.4,33.5,28.2,34.4,23.6,19.7,91,68,47,30.15,29.67,29,4,29,0.02
2013-2-1,39.1,28.2,21.1,29.4,13.9,6.4,84,55,35,30.42,30.09,30,4,30,0.00
2013-2-2,33.2,26.2,18.9,30.5,19.5,7.9,93,77,44,30.42,30.18,9,0,9,0.00
2013-2-3,42.4,34.1,29.4,32.3,27.6,23.4,93,78,55,30.18,30.05,23,2,23,0.42
2013-2-4,47.1,34.4,24.5,31.0,25.1,18.7,82,70,48,30.20,30.05,13,0,13,0.01
2013-2-5,52.4,39.6,34.0,41.6,33.9,27.2,91,80,65,30.10,30.00,5,0,5,0.00
2013-2-6,59.0,42.0,30.1,42.3,30.8,25.2,95,70,30,30.25,30.09,7,0,11,0.01
2013-2-7,49.7,45.9,35.5,43.8,36.8,27.7,92,72,47,30.22,29.94,20,4,20,0.15
2013-2-8,50.1,43.0,34.4,44.0,38.9,26.6,94,86,62,30.19,29.92,19,2,19,0.09
2013-2-9,61.2,41.0,26.2,32.6,26.8,22.7,90,61,30,30.35,30.15,16,1,16,0.01
2013-2-10,52.0,45.7,41.6,45.4,31.4,23.5,92,60,36,30.34,30.11,31,4,31,0.85
2013-2-11,52.8,48.6,43.8,50.2,45.6,38.0,98,89,74,30.14,30.04,21,2,21,0.30
2013-2-12,49.0,42.9,35.9,40.3,35.3,28.8,91,75,58,30.13,29.88,20,1,20,0.13
2013-2-13,48.1,40.6,32.4,42.5,36.4,29.0,92,85,75,29.98,29.72,26,5,26,0.07
2013-2-14,32.6,32.3,32.0,29.6,29.4,29.0,89,89,88,30.01,29.98,7,1,8,0.00
2013-2-16,34.1,28.0,22.7,25.1,16.4,10.0,82,62,44,30.15,29.96,22,5,22,0.01
2013-2-17,35.7,26.6,18.7,14.2,10.7,6.5,65,51,38,30.35,30.15,27,3,27,0.00
2013-2-18,54.5,36.4,21.5,28.6,21.5,13.1,83,57,35,30.43,30.18,21,1,21,0.00
2013-2-19,49.7,39.7,33.0,41.6,26.9,13.9,94,64,32,30.20,29.98,28,3,28,0.31
2013-2-20,45.2,33.6,26.0,16.7,12.2,8.0,58,42,22,30.22,30.15,20,2,20,0.00
2013-2-21,63.1,40.5,25.2,36.2,23.1,12.0,88,54,24,30.25,30.04,17,1,17,0.60
2013-2-22,45.2,41.5,37.3,42.9,38.0,33.8,92,87,81,30.21,30.04,27,5,27,0.69
2013-2-23,55.1,47.7,43.9,51.6,45.0,40.0,95,91,74,30.08,29.84,11,0,11,0.41
2013-2-24,58.7,44.5,33.9,42.1,32.2,24.6,94,66,30,30.05,29.91,17,1,17,0.00
2013-2-25,50.2,41.0,31.3,36.3,29.1,24.0,89,64,45,30.08,29.90,24,4,24,0.03
2013-2-26,49.7,42.5,37.7,43.0,38.6,32.3,92,86,71,29.90,29.56,25,5,25,1.05
2013-2-27,52.2,40.2,34.9,36.2,32.2,29.0,90,74,48,29.89,29.74,24,3,24,0.09
2013-2-28,37.5,32.6,30.3,32.3,25.8,23.0,82,76,71,30.02,29.84,21,3,21,0.00
2013-3-1,37.4,32.0,29.5,29.6,26.9,23.5,90,82,71,30.03,29.96,14,2,14,0.00
2013-3-2,35.0,30.4,26.0,27.8,25.6,18.2,91,82,68,30.06,29.95,17,3,17,0.02
2013-3-3,34.1,27.2,22.4,19.2,16.3,12.4,81,64,51,30.13,30.03,21,3,21,0.00
2013-3-4,51.9,36.6,22.6,31.1,21.6,11.4,74,56,35,30.23,30.08,13,1,13,0.00
2013-3-5,55.7,42.4,31.0,50.8,37.6,25.3,98,83,63,30.13,29.65,34,2,34,0.64
2013-3-6,31.0,27.8,24.6,26.5,23.8,18.4,92,85,70,30.25,29.83,31,6,31,0.00
2013-3-7,50.9,34.4,25.4,34.4,26.8,22.3,89,75,50,30.34,30.21,14,1,14,0.02
2013-3-8,60.1,39.6,25.6,31.9,24.7,18.8,93,62,22,30.38,30.25,11,1,11,0.00
2013-3-9,63.7,47.0,31.6,32.6,28.5,23.4,80,52,29,30.34,30.21,18,1,18,0.00
2013-3-10,62.8,54.0,47.7,39.0,32.8,29.0,57,45,33,30.24,30.08,20,4,20,0.00
2013-3-11,56.8,52.3,49.8,50.4,47.3,38.8,94,83,57,30.10,29.78,21,4,21,1.18
2013-3-12,52.7,42.8,34.2,48.0,35.3,29.0,98,77,48,30.11,29.81,18,3,18,0.03
2013-3-13,44.2,37.0,28.7,29.2,24.2,17.8,76,60,42,30.27,30.09,25,4,25,0.00
2013-3-14,48.2,36.3,23.1,22.4,17.0,14.0,71,47,28,30.37,30.26,18,2,18,0.00
2013-3-15,68.7,48.4,30.1,42.3,33.9,22.4,87,60,37,30.31,29.99,24,1,24,0.00
2013-3-16,72.3,61.1,52.8,48.7,43.3,39.6,63,53,42,29.99,29.81,19,2,19,0.00
2013-3-17,68.5,58.5,49.0,49.7,44.8,41.6,77,61,44,29.97,29.86,16,1,16,0.00
2013-3-18,55.9,49.3,45.9,48.2,45.3,43.1,93,86,70,29.95,29.80,25,5,25,0.42
2013-3-19,56.6,46.9,37.2,45.7,31.9,16.1,94,61,31,30.12,29.86,24,3,24,0.01
2013-3-20,52.6,42.0,34.3,29.4,17.4,9.5,75,38,25,30.14,29.89,23,3,23,0.00
2013-3-21,38.9,31.1,21.3,25.5,13.6,7.8,72,49,34,30.03,29.90,23,4,23,0.00
2013-3-22,44.1,35.3,26.2,30.4,20.8,12.0,69,56,41,30.11,30.02,8,0,8,0.00
2013-3-23,55.7,45.2,38.2,48.0,40.4,29.8,93,84,65,30.08,29.80,19,1,19,0.12
2013-3-24,55.6,47.7,37.1,48.5,43.6,29.5,93,86,72,29.89,29.47,27,4,27,1.42
2013-3-25,37.0,30.4,27.3,29.7,23.3,-99.9,92,75,67,30.06,29.62,28,2,28,0.03
2013-3-26,35.8,29.7,25.3,28.8,24.2,21.6,89,80,65,30.31,30.05,24,4,24,0.04
2013-3-27,47.4,36.2,27.5,25.0,21.9,18.9,82,58,37,30.37,30.28,19,3,19,0.00
2013-3-28,54.4,41.2,30.5,28.7,23.4,18.9,67,51,28,30.36,30.26,20,3,20,0.00
2013-3-29,50.4,40.0,27.9,36.4,29.4,22.9,86,67,44,30.39,30.26,14,1,14,0.00
2013-3-30,65.2,51.2,40.6,49.3,39.9,35.2,93,69,35,30.26,30.03,12,1,12,0.32
2013-3-31,61.1,54.2,51.1,52.9,50.6,48.9,93,88,68,30.03,29.85,13,1,13,0.48
2013-4-1,62.4,53.0,43.3,51.5,43.2,34.0,95,72,47,30.03,29.85,21,3,21,0.02
2013-4-2,59.9,47.1,37.3,34.0,27.0,19.0,72,48,22,30.17,30.02,19,2,19,0.00
2013-4-3,59.0,49.6,39.7,33.7,29.1,24.4,61,46,35,30.22,30.12,18,2,18,0.00
2013-4-4,49.9,41.4,35.6,39.2,34.1,27.1,91,77,41,30.18,29.96,25,5,25,0.61
2013-4-5,62.2,48.9,39.6,42.7,36.9,22.8,94,68,22,30.11,29.96,17,2,17,0.01
2013-4-6,68.5,52.2,34.4,39.5,34.8,31.5,91,56,30,30.22,30.11,18,1,18,0.00
2013-4-7,69.9,58.3,44.5,46.1,40.2,33.6,69,52,37,30.20,30.07,13,1,13,0.00
2013-4-8,75.2,62.2,49.7,51.7,48.0,43.3,85,61,41,30.13,30.03,19,1,19,0.00
2013-4-9,79.7,64.8,50.0,57.2,51.7,46.8,91,65,41,30.18,30.06,15,1,16,0.00
2013-4-10,84.6,67.5,52.0,57.2,53.4,49.4,92,64,35,30.11,29.91,12,1,12,0.00
2013-4-11,74.3,66.8,59.0,62.4,55.7,51.7,93,69,49,29.92,29.63,30,2,30,1.35
2013-4-12,63.9,57.4,49.4,57.7,47.8,37.0,94,73,44,29.92,29.60,17,3,17,0.59
2013-4-13,70.8,56.6,45.4,40.5,36.7,32.2,73,50,27,30.06,29.92,18,2,18,0.00
2013-4-14,65.2,54.0,41.6,48.8,41.2,34.0,90,64,38,30.06,29.92,22,3,22,0.03
2013-4-15,75.1,61.2,51.2,57.8,52.8,48.7,93,76,53,30.15,29.94,19,3,19,0.03
2013-4-16,81.0,67.1,57.5,61.5,57.2,53.8,89,72,48,30.23,30.11,15,2,15,0.00
2013-4-17,80.4,66.7,59.2,65.3,59.0,56.4,94,78,52,30.19,30.02,22,2,22,1.67
2013-4-18,68.4,63.5,58.0,59.5,58.1,56.3,94,83,71,30.04,29.88,14,1,14,0.00
2013-4-19,67.4,57.7,41.1,60.8,51.8,32.9,93,81,71,30.00,29.70,24,3,24,1.10
2013-4-20,60.0,46.9,36.3,34.7,29.4,23.8,77,52,33,30.28,30.00,16,3,16,0.00
2013-4-21,65.0,50.6,35.0,36.9,32.9,28.4,86,54,32,30.38,30.26,20,2,20,0.00
2013-4-22,68.9,55.3,44.1,41.7,37.4,36.0,73,53,31,30.34,30.14,15,3,16,0.00
2013-4-23,73.5,58.2,45.0,45.8,38.1,27.8,67,48,33,30.22,30.05,13,2,13,0.00
2013-4-24,69.6,58.3,50.5,57.7,51.2,45.1,92,78,59,30.12,30.01,16,1,16,0.26
2013-4-25,66.6,51.8,40.7,48.0,37.2,26.1,97,63,24,30.34,30.11,15,2,15,0.00
2013-4-26,72.6,54.5,35.7,47.5,36.0,27.2,87,53,29,30.41,30.27,17,1,17,0.00
2013-4-27,54.9,52.0,48.9,51.1,47.3,45.0,93,84,72,30.37,30.18,16,2,16,0.57
2013-4-28,54.4,52.1,49.5,52.6,49.9,47.3,94,92,85,30.19,30.00,17,2,17,2.11
2013-4-29,72.3,59.6,51.2,55.3,50.9,44.6,94,76,39,30.05,29.92,12,1,12,0.00
2013-4-30,76.4,61.0,46.3,55.9,51.0,44.4,94,72,42,30.11,29.96,17,1,17,0.00
2013-5-1,71.3,62.8,55.5,55.6,52.6,50.1,85,70,52,30.18,30.09,20,3,20,0.00
2013-5-2,65.5,59.2,56.2,55.5,52.4,49.5,85,78,68,30.19,30.12,19,4,19,0.00
2013-5-3,60.5,55.9,53.2,52.5,50.9,48.4,92,84,68,30.15,29.98,21,5,21,0.01
2013-5-4,55.6,51.5,48.6,49.1,46.9,41.1,92,84,69,29.99,29.85,31,7,31,0.76
2013-5-5,54.6,51.3,46.3,50.7,48.6,43.9,92,90,85,29.86,29.76,24,4,24,1.14
2013-5-6,53.4,47.8,40.4,46.1,43.6,38.8,95,86,70,29.93,29.77,14,1,14,0.22
2013-5-7,68.3,56.0,45.6,49.7,46.1,43.0,93,71,47,29.97,29.89,19,1,19,0.01
2013-5-8,67.7,59.1,51.9,56.5,52.7,48.8,94,80,62,30.06,29.93,11,1,11,0.03
2013-5-9,77.9,63.9,51.3,60.1,53.6,49.6,95,73,40,30.12,30.02,15,1,15,0.01
2013-5-10,73.8,63.3,52.2,61.1,55.3,50.2,94,77,56,30.10,29.92,14,1,14,0.05
2013-5-11,72.9,61.3,56.2,61.8,57.4,53.4,95,88,62,29.97,29.84,16,1,16,0.50
2013-5-12,62.3,54.4,46.8,53.4,41.8,30.4,95,66,36,30.11,29.92,19,2,19,0.00
2013-5-13,62.4,52.2,40.6,38.8,33.1,30.2,70,49,34,30.22,30.10,20,2,20,0.00
2013-5-14,75.3,57.8,38.2,52.3,44.0,32.1,87,62,43,30.26,30.10,18,1,18,0.00
2013-5-15,83.3,68.2,53.5,59.3,53.4,50.3,90,63,33,30.17,29.98,13,1,13,0.00
2013-5-16,80.0,66.5,55.3,60.9,56.2,52.6,93,71,45,30.05,29.95,8,0,8,0.00
2013-5-17,76.8,66.6,58.1,62.1,57.3,53.0,92,74,53,30.08,30.00,11,0,11,0.00
2013-5-18,68.3,64.0,60.2,63.6,60.8,57.0,95,89,76,30.06,30.00,6,0,6,0.34
2013-5-19,70.3,64.2,61.5,66.1,61.8,58.8,94,92,84,30.07,29.95,13,1,13,0.51
2013-5-20,82.5,68.8,57.7,67.7,62.1,56.3,95,81,53,30.10,29.98,11,1,11,0.05
2013-5-21,85.1,72.2,62.9,69.1,63.8,58.1,95,77,44,30.03,29.87,15,1,15,0.02
2013-5-22,82.3,70.0,61.4,69.0,62.8,59.1,93,79,53,29.97,29.81,15,1,15,0.03
2013-5-23,77.5,67.1,61.9,63.0,59.1,53.3,94,77,49,29.95,29.86,23,2,23,0.08
2013-5-24,69.8,61.1,51.9,53.8,46.2,37.3,84,60,35,30.22,29.94,19,3,19,0.00
2013-5-25,76.6,59.1,42.5,48.5,42.0,36.5,91,57,30,30.32,30.19,15,1,15,0.00
2013-5-26,75.0,60.7,47.9,52.9,46.3,39.3,84,61,36,30.28,30.16,12,0,12,0.00
2013-5-27,82.3,67.1,50.9,58.5,53.5,46.8,92,64,39,30.23,30.10,14,1,14,0.00
2013-5-28,81.5,70.4,62.3,62.3,58.5,56.1,84,67,43,30.17,30.09,12,1,12,0.00
2013-5-29,82.0,70.7,59.0,64.8,59.7,55.8,90,70,45,30.18,30.10,11,1,11,0.00
2013-5-30,79.3,70.1,61.3,63.6,60.5,57.4,89,72,53,30.22,30.11,15,1,15,0.00
2013-5-31,80.0,71.6,65.6,64.2,61.6,59.4,84,71,56,30.17,30.06,13,1,13,0.00
2013-6-1,78.8,71.5,65.6,65.6,63.3,60.0,92,76,61,30.08,29.96,11,1,11,0.56
2013-6-2,75.3,68.6,66.0,71.0,66.1,63.9,95,92,79,29.98,29.85,9,0,9,1.03
2013-6-3,79.5,70.3,63.1,67.3,63.6,59.2,95,81,55,29.95,29.84,11,1,11,0.01
2013-6-4,80.1,69.4,58.1,65.6,60.7,56.3,95,76,52,30.01,29.93,9,0,9,0.00
2013-6-5,81.4,71.2,62.6,68.8,64.3,60.5,93,80,60,30.01,29.87,16,1,16,1.40
2013-6-6,75.7,68.7,62.1,68.3,64.2,59.6,93,86,75,29.90,29.73,8,0,8,0.00
2013-6-7,80.8,69.9,62.5,68.8,64.3,60.3,94,83,58,29.82,29.65,11,1,12,0.13
2013-6-8,78.3,68.0,61.1,66.1,61.9,59.1,96,82,62,30.07,29.81,9,0,9,0.00
2013-6-9,80.9,70.2,62.8,69.4,65.1,60.5,95,85,62,30.09,29.97,12,0,12,0.27
2013-6-10,78.2,69.5,64.5,67.0,64.0,61.1,94,84,57,29.98,29.89,14,1,14,0.51
2013-6-11,81.8,73.3,66.3,70.6,66.9,64.0,95,82,60,30.00,29.92,16,1,16,0.41
2013-6-12,87.4,76.5,66.7,75.0,69.4,64.9,95,80,55,30.03,29.93,12,0,12,0.00
2013-6-13,84.8,75.7,68.0,73.6,69.2,65.7,95,81,59,29.94,29.68,19,1,19,0.27
2013-6-14,81.7,70.8,59.0,65.9,58.4,53.6,93,67,43,30.00,29.80,11,1,11,0.00
2013-6-15,82.3,70.1,57.7,63.9,59.0,52.2,92,69,49,30.11,30.00,10,0,10,0.00
2013-6-16,84.3,71.6,59.5,67.8,62.3,56.9,93,74,52,30.13,29.98,10,0,10,0.06
2013-6-17,76.4,69.6,66.7,69.8,66.5,64.0,95,90,75,30.03,29.91,18,0,18,1.95
2013-6-18,74.9,69.3,65.7,70.2,66.8,64.2,96,92,79,29.93,29.80,13,0,13,0.29
2013-6-19,81.3,71.0,63.8,69.0,65.1,62.3,96,83,61,30.07,29.88,7,0,7,0.01
2013-6-20,80.8,71.0,63.1,67.4,64.1,61.0,94,80,58,30.18,30.06,11,0,11,0.00
2013-6-21,80.8,70.0,63.6,67.4,63.2,60.8,94,80,56,30.22,30.14,12,0,12,0.00
2013-6-22,80.2,70.6,60.9,65.4,61.9,58.0,95,76,53,30.22,30.07,8,0,8,0.01
2013-6-23,80.8,71.0,60.5,70.9,64.2,58.4,94,80,63,30.18,30.07,11,0,11,0.00
2013-6-24,84.0,72.4,65.3,73.2,67.0,61.9,94,84,61,30.18,30.06,8,0,8,0.32
2013-6-25,82.0,71.9,64.8,69.9,66.6,63.3,95,84,62,30.14,30.01,10,0,10,0.00
2013-6-26,82.8,72.9,66.5,72.5,68.6,64.7,95,87,66,30.04,29.90,15,0,15,0.52
2013-6-27,82.5,74.6,68.9,74.0,69.5,64.4,94,84,71,29.95,29.76,19,1,19,0.10
2013-6-28,87.0,73.8,67.0,72.4,68.1,64.3,96,84,55,29.82,29.63,17,0,17,0.04
2013-6-29,81.9,72.6,64.9,69.1,63.5,58.8,95,75,49,29.70,29.63,12,1,12,0.00
2013-6-30,83.0,71.4,59.9,67.4,62.2,57.9,94,75,48,29.77,29.68,8,0,8,0.00
2013-7-1,79.0,69.3,63.9,68.5,64.7,61.9,95,86,61,29.91,29.75,9,0,9,0.50
2013-7-2,81.6,71.3,65.2,68.4,65.1,61.6,95,82,56,30.07,29.90,10,0,10,0.12
2013-7-3,69.1,66.3,63.8,67.3,64.7,62.0,96,94,92,30.16,30.04,8,0,8,3.48
2013-7-4,73.9,67.9,64.9,70.1,66.0,63.3,95,94,85,30.17,30.09,11,1,11,0.62
2013-7-5,75.7,69.4,66.4,69.7,66.4,64.2,95,90,76,30.19,30.11,8,0,8,0.36
2013-7-6,77.0,71.4,67.1,71.4,67.7,65.3,96,89,77,30.16,30.06,12,1,12,1.64
2013-7-7,78.7,71.8,68.1,71.2,68.3,66.6,96,89,71,30.14,30.06,8,0,8,0.01
2013-7-8,86.6,75.3,68.5,73.3,69.1,66.7,95,82,55,30.16,30.06,10,0,10,0.00
2013-7-9,86.8,75.1,69.0,74.1,70.0,67.2,95,85,61,30.13,30.02,9,0,9,0.08
2013-7-10,85.8,74.5,68.9,74.6,69.7,67.4,96,86,62,30.08,29.92,11,0,11,0.01
2013-7-11,80.4,74.5,69.4,72.9,69.8,67.6,95,86,73,29.94,29.84,7,0,7,0.00
2013-7-12,85.6,74.9,67.4,72.4,68.3,63.1,95,81,56,29.93,29.83,11,0,11,0.00
2013-7-13,75.8,70.4,65.8,66.8,64.3,61.5,89,81,72,30.05,29.91,18,2,18,0.00
2013-7-14,74.9,70.7,67.9,70.2,67.4,64.2,94,89,82,30.22,30.03,18,2,18,0.73
2013-7-15,82.0,73.2,66.7,69.9,67.0,64.3,93,82,62,30.27,30.19,14,1,14,0.01
2013-7-16,88.4,76.7,68.2,72.6,69.0,66.0,95,78,54,30.29,30.19,10,0,10,0.00
2013-7-17,89.7,74.8,68.3,74.7,68.9,64.8,95,83,49,30.26,30.09,17,0,17,0.12
2013-7-18,86.8,74.1,65.7,74.3,68.3,63.8,95,83,59,30.20,30.03,9,0,9,0.02
2013-7-19,86.5,74.1,66.4,73.9,68.6,64.7,95,84,61,30.10,29.97,12,0,12,0.00
2013-7-20,84.5,73.7,68.5,73.1,69.2,66.2,95,86,65,30.02,29.89,11,0,11,0.12
2013-7-21,84.8,73.3,68.6,72.8,69.0,66.2,95,87,63,30.00,29.89,11,0,11,0.43
2013-7-22,81.3,73.3,67.7,71.5,68.5,66.2,96,86,67,29.97,29.82,14,0,14,0.00
2013-7-23,81.2,72.6,67.4,71.7,67.6,64.7,93,84,70,29.91,29.79,16,1,16,0.02
2013-7-24,84.9,73.8,66.8,72.3,68.3,61.3,93,84,59,29.85,29.77,20,0,20,0.12
2013-7-25,84.8,72.1,64.2,71.2,65.8,62.6,95,82,53,29.99,29.83,12,0,12,0.00
2013-7-26,80.2,70.3,62.9,70.9,65.5,60.9,94,85,67,30.05,29.94,15,0,15,0.27
2013-7-27,80.0,71.8,66.0,69.3,66.4,63.4,95,84,60,29.99,29.85,8,0,8,0.00
2013-7-28,81.7,71.6,65.6,67.8,65.0,62.1,95,81,60,30.02,29.89,12,0,12,0.00
2013-7-29,80.3,68.8,60.7,63.7,60.0,53.1,92,76,42,30.17,30.01,12,0,12,0.00
2013-7-30,85.8,70.9,58.9,68.6,61.6,53.5,95,75,38,30.21,30.10,7,0,7,0.00
2013-7-31,76.3,71.7,67.6,69.7,67.0,64.5,93,85,75,30.12,29.93,8,0,8,0.10
2013-8-1,84.1,73.2,68.5,71.3,68.4,66.7,94,86,62,29.96,29.88,10,1,10,0.00
2013-8-2,84.3,75.8,65.6,71.3,67.0,64.1,95,75,56,30.02,29.95,7,0,7,0.00
2013-8-3,81.3,72.4,65.4,70.1,66.4,63.5,95,82,62,30.02,29.96,12,0,12,0.00
2013-8-4,84.1,74.0,66.7,71.0,66.1,58.5,95,78,50,30.01,29.94,12,1,12,0.00
2013-8-5,84.2,71.3,61.9,69.2,62.7,58.2,94,75,49,30.04,29.95,8,0,8,0.00
2013-8-6,82.3,73.9,67.3,71.5,66.9,60.4,92,79,62,29.99,29.93,7,0,7,0.00
2013-8-7,78.5,72.5,70.1,72.9,68.8,67.5,92,88,79,30.01,29.94,11,0,11,0.14
2013-8-8,80.1,76.4,71.0,73.2,71.7,69.2,94,85,76,30.03,29.96,7,0,7,0.13
2013-8-9,80.3,72.5,69.3,75.5,70.0,67.8,96,92,75,30.05,29.99,6,0,9,0.09
2013-8-10,78.3,74.1,70.1,74.3,71.0,68.0,96,90,77,30.11,30.04,16,0,16,0.56
2013-8-11,84.0,74.4,67.5,74.3,70.2,66.0,96,87,68,30.14,30.03,9,0,9,0.01
2013-8-12,86.9,74.5,69.0,74.2,70.2,67.5,96,87,64,30.09,29.95,9,0,9,0.05
2013-8-13,80.2,73.1,68.9,73.2,69.7,66.7,96,89,72,29.98,29.83,11,0,11,0.63
2013-8-14,79.7,71.4,66.6,68.2,65.9,60.6,95,84,57,30.00,29.87,12,0,12,0.00
2013-8-15,73.2,66.3,61.1,62.3,58.6,54.9,84,77,66,30.07,29.98,21,-2,21,0.00
2013-8-16,73.5,64.5,60.6,63.1,57.4,54.1,84,78,68,30.11,30.02,19,1,19,0.01
2013-8-17,68.1,64.2,61.8,63.1,59.4,55.9,94,85,74,30.12,30.05,14,1,14,0.37
2013-8-18,73.7,66.8,62.6,68.2,64.2,60.6,96,91,78,30.19,30.09,8,0,8,0.36
2013-8-19,75.0,68.7,64.5,70.4,66.3,63.0,96,92,82,30.15,30.04,8,0,8,0.73
2013-8-20,75.8,68.7,64.6,69.3,65.7,63.1,96,90,78,30.15,30.08,7,0,7,0.00
2013-8-21,72.3,69.8,67.2,69.6,67.6,65.7,95,93,88,30.21,30.10,6,0,6,0.33
2013-8-22,82.4,71.0,66.4,71.9,67.1,64.9,96,88,66,30.17,30.03,8,0,8,0.24
2013-8-23,84.8,72.7,65.4,71.9,67.4,63.9,96,84,60,30.07,29.95,8,0,9,0.00
2013-8-24,81.1,71.2,63.3,70.5,64.9,59.0,95,81,64,30.24,30.03,12,0,12,0.00
2013-8-25,79.3,69.1,61.4,64.9,59.3,53.4,79,71,57,30.34,30.22,12,0,12,0.00
2013-8-26,81.0,68.7,59.0,66.9,61.5,57.0,94,79,56,30.30,30.13,8,0,8,0.00
2013-8-27,83.2,70.4,62.2,69.7,64.9,60.5,96,84,58,30.16,30.01,7,0,7,0.00
2013-8-28,85.8,73.8,65.7,72.5,67.6,63.9,95,82,60,30.06,29.94,10,0,10,0.00
2013-8-29,85.3,76.0,68.2,73.9,69.8,65.8,94,82,66,29.99,29.89,11,1,11,0.00
2013-8-30,86.6,77.5,69.2,73.5,71.1,67.1,94,81,60,29.99,29.88,8,0,8,0.00
2013-8-31,85.3,73.8,68.9,73.0,69.5,66.9,95,87,64,29.94,29.86,8,0,8,0.00
2013-9-1,84.0,74.4,68.9,73.6,70.0,66.2,95,86,68,29.90,29.80,11,0,11,0.17
2013-9-2,80.1,72.3,67.6,71.2,68.2,65.8,95,87,72,29.94,29.82,10,0,10,0.00
2013-9-3,82.7,73.5,66.0,71.3,67.7,64.0,94,83,60,29.97,29.83,7,0,11,0.69
2013-9-4,83.4,71.3,64.0,69.9,65.7,62.2,95,84,60,30.09,29.95,7,0,7,0.01
2013-9-5,82.6,71.3,64.4,70.1,65.6,62.6,95,84,57,30.11,30.05,8,0,8,0.00
2013-9-6,83.8,71.4,64.6,67.8,64.4,62.0,94,80,52,30.13,30.03,9,0,9,0.01
2013-9-7,82.0,70.6,62.2,68.1,64.0,60.1,94,81,57,30.11,29.98,7,0,7,0.00
2013-9-8,83.2,71.5,64.2,69.9,65.0,61.3,95,81,52,30.01,29.92,10,0,10,0.00
2013-9-9,82.8,70.5,63.5,70.3,65.1,61.4,94,84,59,30.07,29.99,9,0,9,0.01
2013-9-10,84.5,75.4,63.7,70.6,66.8,61.5,95,76,53,30.21,30.11,8,0,8,0.00
2013-9-11,84.8,72.5,64.1,70.9,66.2,61.9,94,82,55,30.21,30.08,7,0,7,0.01
2013-9-12,78.0,71.1,67.4,70.9,67.3,64.0,94,88,75,30.09,29.88,19,0,19,0.33
2013-9-13,76.6,67.7,56.9,66.5,60.4,51.5,94,79,54,29.91,29.81,15,1,15,0.26
2013-9-14,74.7,61.4,51.1,59.4,53.5,48.9,93,77,50,30.09,29.89,12,0,12,0.00
2013-9-15,77.8,64.5,57.7,63.4,58.2,53.9,91,81,55,30.17,30.09,12,0,12,0.00
2013-9-16,80.5,67.8,60.5,66.9,60.5,56.8,94,79,52,30.15,30.06,9,0,9,0.00
2013-9-17,71.5,65.5,61.5,60.3,57.9,54.4,91,77,64,30.21,30.11,15,1,15,0.00
2013-9-18,70.5,64.4,59.7,61.6,57.1,52.2,91,77,69,30.23,30.12,12,0,12,0.00
2013-9-19,71.0,60.6,57.1,61.9,57.8,55.1,94,90,72,30.18,30.14,7,0,7,0.00
2013-9-20,78.0,70.8,60.5,68.0,63.4,58.5,94,78,62,30.07,29.90,8,0,8,0.00
2013-9-21,66.8,64.2,59.8,64.4,61.7,57.8,93,92,88,29.92,29.66,7,0,9,1.52
2013-9-22,74.4,61.5,52.6,60.1,55.9,50.6,94,83,54,29.90,29.75,3,0,9,0.00
2013-9-23,74.0,62.0,54.0,60.3,55.7,52.0,94,81,59,30.04,29.90,2,0,9,0.01
2013-9-24,69.7,62.5,56.8,62.5,58.1,53.9,92,86,76,30.04,29.90,12,0,12,0.00
2013-9-25,66.0,62.4,60.0,62.5,59.7,57.7,93,91,85,29.90,29.81,13,1,13,2.18
2013-9-26,76.5,65.0,58.3,64.9,60.0,56.3,93,85,62,30.01,29.86,10,0,10,0.00
2013-9-27,77.5,63.5,53.8,61.9,56.7,51.8,94,80,54,30.13,30.01,6,0,6,0.00
2013-9-28,72.9,61.5,54.8,60.4,54.9,51.4,90,80,59,30.20,30.09,11,0,11,0.00
2013-9-29,68.6,59.9,52.5,58.7,53.3,48.7,89,79,63,30.15,30.02,8,0,8,0.00
2013-9-30,70.5,60.5,53.3,60.1,55.3,50.9,94,84,60,30.09,29.99,8,0,8,0.00
2013-10-1,75.8,61.6,52.7,62.0,56.2,50.7,94,83,59,30.18,30.07,7,0,7,0.01
2013-10-2,79.5,64.8,56.0,65.4,58.8,54.0,94,82,55,30.18,30.05,4,0,4,0.00
2013-10-3,77.3,65.9,60.0,64.8,60.5,57.7,93,84,58,30.14,30.05,5,0,5,0.00
2013-10-4,82.9,66.0,57.2,66.5,60.0,55.2,94,83,54,30.17,30.07,7,0,7,0.01
2013-10-5,81.7,67.3,59.0,66.5,61.2,57.0,94,82,56,30.14,30.00,12,0,12,0.01
2013-10-6,76.3,67.3,60.8,64.8,61.7,58.5,93,83,63,30.04,29.84,11,0,11,0.25
2013-10-7,68.8,59.5,52.6,62.3,55.5,49.9,93,87,67,30.00,29.79,10,1,10,0.50
2013-10-8,73.2,59.6,51.3,58.6,52.5,49.1,94,79,58,30.14,29.99,15,0,15,0.00
2013-10-9,75.5,62.1,49.6,62.2,54.7,47.1,92,78,61,30.18,30.08,9,0,9,0.00
2013-10-10,71.8,59.2,50.8,57.3,52.9,48.8,94,81,54,30.13,30.02,12,0,12,0.01
2013-10-11,74.8,59.5,49.7,59.2,53.2,47.8,94,81,48,30.08,29.97,8,0,8,0.00
2013-10-12,73.7,60.2,52.0,60.5,54.7,49.7,94,83,59,30.12,30.01,10,0,10,0.01
2013-10-13,72.5,61.1,53.0,62.3,56.7,50.9,94,86,69,30.21,30.11,9,0,9,0.01
2013-10-14,72.5,63.5,58.9,62.2,58.8,56.1,95,85,68,30.20,30.09,8,0,8,0.00
2013-10-15,68.6,61.5,57.3,58.8,56.1,53.8,91,83,68,30.14,30.01,8,0,8,0.00
2013-10-16,67.1,61.0,56.6,59.8,56.3,53.4,92,85,71,30.06,29.95,3,0,5,0.01
2013-10-17,66.5,61.6,57.1,64.1,59.5,54.8,94,93,91,29.97,29.85,8,0,9,0.37
2013-10-18,67.0,56.4,50.6,56.2,52.0,48.7,94,86,66,30.02,29.92,6,0,6,0.00
2013-10-19,60.9,54.8,49.6,53.9,50.7,46.5,93,86,68,29.99,29.91,9,0,9,0.01
2013-10-20,65.2,50.0,42.4,46.6,42.9,39.8,93,79,46,30.10,29.98,7,0,7,0.01
2013-10-21,66.6,52.5,42.9,52.5,46.4,40.7,94,81,52,30.16,30.03,5,0,8,0.00
2013-10-22,66.5,56.4,51.9,54.2,50.1,46.9,93,81,54,30.06,29.84,9,0,9,0.01
2013-10-23,52.3,46.0,36.1,47.7,38.6,30.8,89,76,58,30.09,29.81,22,2,22,0.00
2013-10-24,55.7,42.4,33.3,40.0,35.0,29.6,91,76,54,30.23,30.07,12,1,12,0.00
2013-10-25,50.9,38.6,29.3,35.9,26.4,20.0,81,64,31,30.41,30.23,12,1,12,0.00
2013-10-26,57.2,41.3,29.4,35.1,30.2,25.9,91,67,38,30.39,30.19,11,0,11,0.00
2013-10-27,59.3,52.3,44.0,51.0,42.9,33.2,89,71,60,30.21,30.11,9,0,9,0.00
2013-10-28,61.2,55.0,51.8,55.4,50.9,49.0,93,87,69,30.29,30.15,7,0,7,0.05
2013-10-29,65.1,55.4,50.0,55.2,50.9,48.1,93,86,65,30.35,30.25,6,0,6,0.00
2013-10-30,72.3,60.3,52.7,57.9,54.2,50.4,94,81,57,30.32,30.15,9,0,9,0.00
2013-10-31,67.4,61.8,56.4,59.2,55.5,50.9,92,80,69,30.17,29.76,20,1,20,0.00
2013-11-1,70.6,62.7,53.6,60.6,52.7,42.8,92,72,42,29.81,29.66,23,1,23,0.22
2013-11-2,59.0,51.1,43.6,46.1,40.6,33.3,91,68,46,30.06,29.78,18,1,18,0.00
2013-11-3,60.3,47.0,39.5,39.0,35.9,32.4,84,67,39,30.34,30.05,4,0,8,0.00
2013-11-4,57.1,47.9,43.1,36.9,34.4,32.0,75,60,45,30.45,30.34,20,2,20,0.00
2013-11-5,64.5,51.7,42.0,38.9,33.6,30.4,68,51,33,30.47,30.35,21,4,23,0.00
2013-11-6,64.1,56.8,50.2,54.0,50.9,36.0,92,81,58,30.38,30.10,14,2,14,0.03
2013-11-7,58.7,51.7,38.3,55.3,44.2,29.1,93,76,45,30.20,30.01,18,2,18,0.24
2013-11-8,55.9,42.8,34.4,29.8,23.2,10.8,72,49,17,30.36,30.19,14,1,14,0.00
2013-11-9,55.8,45.6,33.5,38.6,28.9,23.3,75,53,36,30.37,30.25,15,0,15,0.00
2013-11-10,65.6,49.6,38.2,39.9,33.2,29.3,77,55,29,30.32,30.22,12,1,12,0.00
2013-11-11,64.0,47.0,32.8,35.9,30.8,27.4,87,56,28,30.33,30.18,6,0,6,0.00
2013-11-12,52.6,38.9,24.1,38.9,28.5,13.5,85,66,53,30.47,30.15,21,2,21,0.00
2013-11-13,44.9,30.0,19.3,19.1,15.3,12.3,78,56,30,30.63,30.47,9,0,9,0.00
2013-11-14,55.7,35.8,24.1,24.0,18.8,16.2,81,55,23,30.55,30.36,6,0,6,0.00
2013-11-15,51.3,49.1,37.8,49.3,45.8,25.1,93,89,60,30.34,30.17,15,1,15,0.21
2013-11-16,61.7,55.1,50.0,54.3,51.5,47.9,93,88,75,30.24,30.14,14,1,14,0.00
2013-11-17,60.2,58.6,56.2,58.3,55.7,52.8,95,90,85,30.17,29.90,14,2,14,0.18
2013-11-18,64.8,55.7,44.9,62.4,43.6,30.6,95,67,36,30.06,29.86,29,2,29,0.02
2013-11-19,55.1,44.4,35.6,33.1,28.3,24.6,66,54,34,30.20,30.03,11,1,11,0.00
2013-11-20,50.9,43.7,37.9,30.7,27.3,23.6,63,53,42,30.38,30.20,18,5,25,0.00
2013-11-21,56.8,52.3,45.1,52.4,47.0,29.9,90,82,69,30.42,30.32,18,6,18,0.00
2013-11-22,63.3,58.0,54.1,58.3,54.9,51.5,93,89,82,30.35,30.15,13,1,13,0.12
2013-11-23,56.7,46.8,32.9,54.4,40.1,16.9,93,79,34,30.28,30.11,17,2,17,0.01
2013-11-24,42.7,30.6,21.7,20.8,13.6,8.4,70,51,25,30.52,30.26,15,1,15,0.00
2013-11-25,43.0,34.3,26.6,30.9,14.0,4.6,87,45,26,30.52,30.26,24,4,24,0.05
2013-11-26,48.2,43.9,34.7,46.3,41.7,31.3,93,92,87,30.27,29.69,18,3,18,2.63
2013-11-27,41.1,29.8,21.1,39.2,24.7,14.2,93,81,67,30.26,29.68,28,4,28,0.09
2013-11-28,46.1,28.6,17.2,26.9,19.3,13.5,88,70,40,30.54,30.26,5,0,5,0.00
2013-11-29,53.7,37.0,25.6,31.6,25.9,20.9,91,67,41,30.61,30.49,20,1,20,0.00
2013-11-30,50.7,40.6,33.7,27.7,24.6,22.6,65,53,38,30.56,30.35,16,3,23,0.00
2013-12-1,53.1,43.4,37.4,38.8,31.7,25.8,80,64,42,30.35,30.04,10,0,10,0.00
2013-12-2,48.1,44.1,38.6,44.0,38.9,32.1,92,82,67,30.04,29.84,3,0,4,0.02
2013-12-3,53.5,50.2,46.7,49.6,47.3,43.9,94,90,85,29.93,29.84,11,2,13,0.08
2013-12-4,64.2,57.0,51.1,56.3,52.9,48.6,94,87,74,30.04,29.92,9,1,9,0.04
2013-12-5,67.0,61.4,55.6,63.2,59.0,53.6,94,92,82,30.07,29.96,8,0,8,0.45
2013-12-6,70.8,65.0,53.7,63.0,60.2,51.1,94,85,74,30.03,29.88,26,2,26,0.31
2013-12-7,53.8,42.9,38.5,51.7,41.1,36.9,94,93,91,30.32,29.99,15,1,15,0.17
2013-12-8,47.4,43.8,41.5,45.8,41.3,38.7,94,91,87,30.29,30.14,22,7,28,0.83
2013-12-9,53.7,50.9,47.4,52.0,49.2,45.8,94,94,93,30.15,29.99,13,1,13,0.84
2013-12-10,49.4,39.6,27.5,47.7,34.7,19.8,94,83,63,30.35,29.93,19,2,19,0.39
2013-12-11,49.2,33.3,22.7,29.2,22.3,18.1,98,67,32,30.51,30.34,9,0,9,0.00
2013-12-12,40.5,30.6,24.1,23.1,18.7,11.5,85,62,39,30.48,30.39,13,1,13,0.00
2013-12-13,48.1,35.1,20.6,26.8,20.1,13.5,86,57,36,30.46,30.24,20,1,20,0.00
2013-12-14,50.6,45.6,41.1,48.7,39.2,22.2,93,80,44,30.26,29.81,11,2,19,0.47
2013-12-15,49.2,34.1,26.3,47.0,31.0,23.8,93,88,82,30.22,29.81,20,3,20,0.03
2013-12-16,48.8,34.4,25.6,34.3,27.8,23.6,93,79,50,30.33,30.22,5,0,8,0.00
2013-12-17,55.7,40.3,28.8,37.1,31.1,23.5,93,72,45,30.28,30.08,20,2,20,0.01
2013-12-18,46.9,35.2,28.0,24.0,17.6,13.5,67,50,27,30.36,30.20,15,2,15,0.00
2013-12-19,61.6,41.5,27.0,32.4,24.0,18.3,81,54,26,30.40,30.24,12,1,12,0.00
2013-12-20,61.8,49.7,38.2,48.4,36.9,25.7,83,63,40,30.25,30.13,11,1,11,0.00
2013-12-21,66.3,60.8,53.5,61.6,56.6,48.4,92,86,81,30.14,29.91,24,2,24,0.10
2013-12-22,67.7,58.2,52.2,61.6,55.0,50.1,94,90,73,30.07,29.86,25,2,25,3.37
2013-12-23,52.0,44.7,31.9,50.1,42.3,29.0,94,91,82,30.26,30.00,16,2,16,0.07
2013-12-24,32.2,28.3,21.2,28.9,22.3,15.2,91,78,64,30.45,30.25,17,2,17,0.01
2013-12-25,41.2,28.9,19.7,22.8,18.4,15.7,90,67,43,30.53,30.40,15,1,15,0.00
2013-12-26,47.3,33.0,24.7,29.5,24.1,20.9,90,71,45,30.44,30.33,6,0,9,0.00
2013-12-27,51.0,34.6,25.0,29.5,25.0,21.7,92,70,37,30.52,30.39,5,0,5,0.00
2013-12-28,46.9,35.8,27.5,41.2,30.8,23.9,92,83,44,30.47,30.03,23,1,23,0.49
2013-12-29,46.5,43.5,38.8,44.6,40.8,35.9,93,90,83,30.06,29.87,19,3,19,0.20
2013-12-30,42.6,39.4,34.3,38.0,35.8,31.3,92,87,80,30.22,30.04,13,1,13,0.00
2013-12-31,42.2,33.7,28.5,31.5,25.8,18.6,91,74,49,30.43,30.20,8,1,11,0.00
2014-1-1,46.7,37.5,28.0,30.6,25.8,22.5,84,64,43,30.40,30.16,14,2,14,0.00
2014-1-2,46.0,36.1,16.6,44.3,32.4,12.3,95,86,73,30.16,29.76,18,2,25,0.38